Skip Page Navigation
NASA JPL Caltech
NASA Logo - Jet Propulsion Laboratory + View the NASA Portal
+ Near-Earth Object (NEO) Program
Search JPL
JPL Home Earth Solar System Stars & Galaxies Technology
JPL Solar System Dynamics
BODIES ORBITS EPHEMERIDES TOOLS PHYSICAL DATA DISCOVERY FAQ SITE MAP
JPL Small-Body Database Browser
Search: [ help ]  
188941 (2007 DT7)
Classification: Main-belt Asteroid          SPK-ID: 2188941
Ephemeris | Orbit Diagram | Orbital Elements | Physical Parameters | Discovery Circumstances ]

[ hide orbit diagram ]
Orbit Diagram
Note: Make sure you have Java enabled on your browser to see the applet. This applet is provided as a 3D orbit visualization tool. The applet was implemented using 2-body methods, and hence should not be used for determining accurate long-term trajectories (over several years or decades) or planetary encounter circumstances. For accurate long-term ephemerides, please instead use our Horizons system.
Orbit Viewer

Additional Notes: the orbits shown in the applet are color coded. The planets are white lines, and the asteroid/comet is a blue line. The bright white line indicates the portion of the orbit that is above the ecliptic plane, and the darker portion is below the ecliptic plane. Likewise for the asteroid/comet orbit, the light blue indicates the portion above the ecliptic plane, and the dark blue the portion below the ecliptic plane.

Orbit Viewer applet originally written and kindly provided by Osamu Ajiki (AstroArts), and further modified by Ron Baalke (JPL).


Orbital Elements at Epoch 2456400.5 (2013-Apr-18.0) TDB
Reference: MPO229864 (heliocentric ecliptic J2000)
 Element Value Uncertainty (1-sigma)   Units 
e 0.0342116 n/a  
a 2.7952131 n/a AU
q 2.6995844 n/a AU
i 3.97857 n/a deg
node 193.09149 n/a deg
peri 87.16761 n/a deg
M 348.74460 n/a deg
tp 2456453.8677935
(2013-Jun-10.36779350)
n/a JED
period 1706.9500558
4.67
n/a
n/a
d
yr
n 0.21090248 n/a deg/d
Q 2.8908418 n/a AU
  Orbit Determination Parameters
   # obs. used (total)      134  
   first obs. used      2002-??-??  
   last obs. used      2012-04-29  
   # oppositions      8  
   planetary ephem.      DE403  
   condition code      0  
   fit RMS      0.42  
   data source      MPC:mpu  
   producer      MPCLINUX  

Additional Information
 T_jup = 3.323 

Ephemeris | Orbit Diagram | Orbital Elements | Physical Parameters | Discovery Circumstances ]

Physical Parameter Table
Parameter Symbol Value Units Sigma Reference Notes
absolute magnitude H 16.6 mag n/a MPO229864  

188941 (2007 DT7)          Discovered 2007-Feb-17 by Calvin College at Calvin-Rehoboth (G98)
Reference: 20080618/Numbers.arcLast Updated: 2008-06-20

Alternate Designations
 2007 DT7 = 2005 UP410 = 2007 CH64 
Ephemeris | Orbit Diagram | Orbital Elements | Physical Parameters | Discovery Circumstances ]
ABOUT SSD CREDITS/AWARDS PRIVACY/COPYRIGHT GLOSSARY LINKS
FirstGov 2013-May-25 15:42 UT
(server date/time)  
NASA Home Page
Site Manager:   Donald K. Yeomans
Webmaster  Alan B. Chamberlin